Showing default

LEMUR 2 CAEL, 58903

Orbit data source: Space-Track

LEMUR 2 CAEL, 58903 is an American payload satellite in SSO that was launched on Wed, 31 Jan 2024 UTC via an ELECTRON launch vehicle from the Rocket Lab Launch Complex (RLLC). Payload-class satellites include a variety of spacecraft equipped with specific instruments for various scientific and technological missions. These include communications satellites like Starlink; space stations such as the ISS; scientific satellites like the Hubble; Earth observation satellites from companies like Planet Labs, Umbra, and HawkEye 360; GPS; miniature CubeSats for education and research; and military/defense satellites.

Loading next visibility...
Identifier
58903, 2024-022E
Orbit
SSO
Country
Flag of USUS
Related business
Manufacturer
Spire/Glasgow
Mission
Operational Commercial Early Warn
Bus & Motor
CUBESAT 3U, Unknown motor
Mass
~25 kg wet, ~25 kg dry
Launch date (UTC)
2024-01-31 (3 years ago)
Launch vehicle
ELECTRON
Launch site
Rocket Lab Launch Complex (RLLC)
Object type
Payload
Rocket body
Debris
Shape & HBR
Box + 2 Pan, 0.5 m
Radar Cross Section
0.146 m², Medium (>0.1 m² and < 1m²)

Expand to show TLE details & history
Last TLE update: 15 hours ago

TLE from 15 hours ago
0 LEMUR 2 CAEL
1 58903U 24022E   26255.54397208  .00013569  00000-0  30378-3 0  9991
2 58903  97.3978 107.8022 0008287 131.3689 228.8273 15.43544987145806
Epoch: 2026-09-12T13:03Z
TLE epoch observation values (Epoch: 2026-09-12T13:03:19.187Z)
Latitude
-0.00002°
Longitude
-79.5792°
Altitude
442.5 km
Speed
7.644 km/s
True Right ascension
07h 11m 12s
True Declination
0° 00' 00"
Sunlit
Object was in daylight at epoch
Visualization orbit readout
Latitude
Unknown
Longitude
Unknown
Altitude
Unknown
Speed
Unknown
Apparent Right ascension
Unknown
Apparent Declination
Unknown
Sunlit
N/A
Visualization observer readout
Local Sidereal Time
20:04:11
Azimuth
Unknown
Elevation
Unknown
Doppler factor
Unknown
Orbital elements
Apogee altitude
438.235 km
Perigee altitude
426.947 km
Semi-major axis
6,810.728 km
Eccentricity
0.00083
Inclination
97.3978°
RAAN
107.8022°
Arg. of periapsis
131.3689°
True anomaly
228.75587°
Mean anomaly
228.8273°
Eccentric anomaly
228.79158°
Mean motion
3.86147 °/min
Orbital period
93.23 mins
BSTAR
0.00030378
Loading maneuver chart data...
Computing Atmospheric mass density...
Loading historical data...
Loading historical data...
Loading historical data...
Loading historical data...
Loading historical data...
Loading historical data...
Loading historical data...

Documentation

Showing up to 5 results
|